Back to catalog

MOLNIYA 1-80

AliveCommunicationsHEO
NORAD 21118·PAYLOAD·🇷🇺 Russia

Launched Feb 15, 1991 from Plesetsk Cosmodrome

Loading…

Next Passes (next 24 hours)

TLE

FreshSource: Space-Track

Epoch: Sep 14, 2026, 00:43 UTC

1 21118U 91012A   26257.03048835  .00000865  00000-0  00000-0 0  9998
2 21118  64.8902 187.6336 6345016 254.4342  31.2493  2.05237643262786

Track MOLNIYA 1-80 in real time with AllMySat

Download on the App Store